Flag for Thailand Weather past 2 weeks in Phuket, Thailand

Now
88 °F

Broken clouds.


Feels Like: 100 °F
Forecast: 80 / 86 °F
Wind: 8 mph from East

Location: Phuket Airport

Current Time: Jul 28, 2015 at 11:40:43 AM

Latest Report: Jul 28, 2015 at 11:00 AM


Visibility: N/A

Pressure: 29.89 "Hg

Humidity: 70%

Dew point: 77 °F

Location of PhuketLocation

Historic Weather in Phuket — Graph

°F

Phuket temperature yesterday

Maximum temperature yesterday: 90 °F (at 12:00 PM)
Minimum temperature yesterday: 75 °F (at 12:00 AM)
Average temperature yesterday: 81 °F

Past Weeks' High & Low Weather Summary

 TemperatureHumidityPressure
High91 °F (Jul 18, 12:00 PM)100% (Jul 15, 11:30 PM)29.95 "Hg (Jul 15, 11:30 PM)
Low73 °F (Jul 20, 11:30 PM)44% (Jul 22, 2:30 PM)29.68 "Hg (Jul 13, 3:00 PM)
Average82 °F79%29.83 "Hg
* Reported Jul 13 10:00 AM — Jul 28 10:30 AM, Phuket, Weather by CustomWeather, © 2015

Note: Actual official high and low records may vary slightly from our data, if they occured in-between our weather recording intervals... More about our weather records

Advertising

Phuket weather history for previous 24 hours

 ConditionsComfort  
Time TempWeatherWind HumidityBarometerVisibility
10:30 AM
Tue, Jul 28
88 °FPartly sunny.8 mph66%29.89 "HgN/A
10:00 AM86 °FPartly sunny.9 mph70%29.92 "HgN/A
9:30 AM86 °FScattered clouds.10 mph70%29.92 "Hg6 mi
9:00 AM84 °FPartly sunny.7 mph74%29.95 "Hg6 mi
8:30 AM82 °FPartly sunny.3 mph84%29.92 "Hg5 mi
8:00 AM82 °FScattered clouds.6 mph84%29.92 "Hg5 mi
7:30 AM79 °FScattered clouds.2 mph94%29.92 "Hg5 mi
7:00 AM77 °FScattered clouds.2 mph94%29.92 "Hg5 mi
6:30 AM77 °FPartly sunny.2 mph89%29.89 "Hg5 mi
6:00 AM77 °FPassing clouds.No wind89%29.89 "Hg5 mi
5:30 AM77 °FPassing clouds.2 mph89%29.89 "Hg5 mi
5:00 AM77 °FPassing clouds.1 mph94%29.89 "Hg5 mi
4:30 AM77 °FPassing clouds.No wind94%29.89 "Hg5 mi
4:00 AM77 °FPassing clouds.2 mph94%29.89 "Hg5 mi
3:30 AM77 °FPassing clouds.2 mph94%29.89 "Hg5 mi
3:00 AM77 °FPassing clouds.2 mph94%29.89 "Hg5 mi
2:30 AM77 °FPassing clouds.1 mph94%29.92 "Hg5 mi
2:00 AM77 °FPassing clouds.2 mph94%29.92 "Hg6 mi
1:30 AM77 °FPassing clouds.1 mph94%29.92 "Hg6 mi
1:00 AM77 °FPassing clouds.No wind94%29.95 "Hg6 mi
12:30 AM77 °FPassing clouds.2 mph94%29.95 "HgN/A
12:00 AM77 °FPassing clouds.3 mph94%29.95 "HgN/A
11:30 PM
Mon, Jul 27
77 °FPassing clouds.1 mph89%29.95 "HgN/A
11:00 PM77 °FPassing clouds.1 mph89%29.95 "HgN/A
10:30 PM79 °FPassing clouds.No wind84%29.95 "HgN/A
10:00 PM79 °FPassing clouds.No wind84%29.95 "HgN/A
9:30 PM79 °FPartly cloudy.No wind89%29.95 "HgN/A
9:00 PM79 °FPartly cloudy.No wind89%29.92 "HgN/A
8:30 PM81 °FPartly cloudy.2 mph84%29.92 "HgN/A
8:00 PM81 °FPartly cloudy.No wind79%29.89 "HgN/A
7:30 PM81 °FPartly cloudy.No wind79%29.86 "HgN/A
7:00 PM81 °FPartly cloudy.No wind84%29.86 "HgN/A
6:30 PM82 °FBroken clouds.No wind79%29.86 "HgN/A
6:00 PM86 °FBroken clouds.No wind62%29.83 "HgN/A
5:30 PM86 °FBroken clouds.No wind66%29.83 "HgN/A
5:00 PM84 °FBroken clouds.5 mph70%29.86 "HgN/A
4:00 PM86 °FBroken clouds.9 mph66%29.86 "HgN/A
3:30 PM86 °FBroken clouds.10 mph66%29.86 "HgN/A
3:00 PM88 °FBroken clouds.10 mph62%29.86 "HgN/A
2:30 PM88 °FBroken clouds.10 mph59%29.86 "HgN/A
2:00 PM88 °FBroken clouds.9 mph62%29.89 "HgN/A
1:30 PM86 °FBroken clouds.9 mph70%29.89 "HgN/A
1:00 PM88 °FBroken clouds.9 mph59%29.92 "HgN/A
12:30 PM90 °FBroken clouds.12 mph59%29.92 "HgN/A
12:00 PM90 °FBroken clouds.10 mph59%29.92 "HgN/A
11:30 AM88 °FPartly sunny.6 mph66%29.92 "HgN/A
11:00 AM86 °FPartly sunny.5 mph66%29.95 "HgN/A
Weather by CustomWeather, © 2015

See weather overviewHow to use our weather pages